Location: La Brionne
(46.1728°N, 1.7849°E)
Time: 20:44:30
(UTC+00:00)

Cosmos 2237 Rocket - Pass Details

Date: 16 June 2021
Orbit: 835 x 850 km, 71.0° (Epoch: 01 August)

Event Time Altitude Azimuth Distance (km) Brightness Sun altitude
Exits shadow 23:23:26 38° 190° (S) 1,258 2.6 -20.1°
Maximum altitude 23:25:39 75° 114° (ESE) 866 2.1 -20.2°
Drops below altitude 10° 23:31:16 10° 29° (NNE) 2,455 5.4 -20.3°
Sets 23:33:43 0° 28° (NNE) 3,394 6.3 -20.3°
